Weather History for KNRB - January, 2013

Change the Weather History Date:

Saturday, January 19, 2013

  Actual Average Record
Temperature  
Mean Temperature 56 °F -  
Max Temperature 59 °F 61 °F 82 °F (2001)
Min Temperature 53 °F 46 °F 30 °F (1997)
Degree Days  
Heating Degree Days 9    
Growing Degree Days 6 (Base 50)    
Moisture  
Dew Point 51 °F    
Average Humidity 84    
Maximum Humidity 94    
Minimum Humidity 75    
Precipitation  
Precipitation 0.00 in - - ()
Sea Level Pressure  
Sea Level Pressure 30.30 in    
Wind  
Wind Speed 15 mph (North)    
Max Wind Speed 20 mph    
Max Gust Speed 29 mph    
Visibility 10 miles    
Events      
Averages and records for this station are not official NWS values.
T = Trace of Precipitation, MM = Missing Value Source: NWS Daily Summary

Daily Weather History Graph

Daily Weather History Graph

Search for Another Location

Airport or City:

Trip Planner

Search our weather history database for the weather conditions in past years. The results will help you decide how hot, cold, wet, or windy it might be!

Date:

Astronomy

Jan. 19, 2013 Rise Set
Actual Time 7:22 AM EST 5:51 PM EST
Civil Twilight 6:56 AM EST 6:16 PM EST
Nautical Twilight 6:27 AM EST 6:46 PM EST
Astronomical Twilight 5:58 AM EST 7:15 PM EST
Moon 12:11 PM EST (1/19) 1:01 AM EST (1/19)
Length of Visible Light 11h 20m
Length of Day
10h 28m
First Quarter, 57% of the Moon is Illuminated
Jan 19
First Quarter
Jan 26
Full
Feb 3
Last Quarter
Feb 10
New
Feb 17
First Quarter

Hourly Weather History & Observations

Time (EST) Temp. Dew Point Humidity Pressure Visibility Wind Dir Wind Speed Gust Speed Precip Events Conditions
12:52 AM 55.9 °F 48.0 °F 75% 30.35 in 10.0 mi North 15.0 mph 26.5 mph N/A   Overcast
1:52 AM 55.0 °F 48.0 °F 77% 30.34 in 10.0 mi North 15.0 mph 24.2 mph N/A   Overcast
2:52 AM 54.0 °F 48.0 °F 80% 30.34 in 10.0 mi North 17.3 mph 23.0 mph N/A   Overcast
3:52 AM 53.1 °F 46.9 °F 80% 30.34 in 10.0 mi North 18.4 mph 26.5 mph N/A   Overcast
4:52 AM 53.1 °F 46.9 °F 80% 30.33 in 10.0 mi North 16.1 mph 24.2 mph N/A   Overcast
5:52 AM 53.1 °F 46.9 °F 80% 30.33 in 10.0 mi North 18.4 mph 26.5 mph N/A   Overcast
6:32 AM 53.6 °F 46.4 °F 77% 30.34 in 10.0 mi North 17.3 mph 28.8 mph N/A   Overcast
6:52 AM 53.1 °F 48.0 °F 83% 30.34 in 10.0 mi North 19.6 mph 27.6 mph N/A   Overcast
7:52 AM 54.0 °F 48.9 °F 83% 30.35 in 10.0 mi North 13.8 mph 25.3 mph N/A   Overcast
8:52 AM 55.9 °F 51.1 °F 84% 30.36 in 10.0 mi NNE 16.1 mph 27.6 mph N/A   Overcast
9:52 AM 57.0 °F 51.1 °F 81% 30.38 in 10.0 mi NNE 18.4 mph 27.6 mph N/A   Overcast
10:18 AM 57.2 °F 51.8 °F 82% 30.38 in 10.0 mi NNE 19.6 mph 27.6 mph N/A   Overcast
10:52 AM 57.9 °F 52.0 °F 81% 30.37 in 10.0 mi NNE 17.3 mph 25.3 mph N/A   Overcast
11:00 AM 59.0 °F 51.8 °F 77% 30.37 in 10.0 mi NNE 18.4 mph 25.3 mph N/A   Scattered Clouds
11:52 AM 57.0 °F 52.0 °F 83% 30.35 in 10.0 mi NNE 16.1 mph 24.2 mph N/A   Mostly Cloudy
12:52 PM 57.0 °F 52.0 °F 83% 30.32 in 9.0 mi North 17.3 mph 25.3 mph N/A   Overcast
1:52 PM 57.9 °F 52.0 °F 81% 30.29 in 9.0 mi North 15.0 mph - N/A   Overcast
2:52 PM 57.0 °F 52.0 °F 83% 30.26 in 9.0 mi North 16.1 mph 21.9 mph N/A   Overcast
3:52 PM 57.0 °F 52.0 °F 83% 30.24 in 10.0 mi North 9.2 mph - N/A   Overcast
4:52 PM 57.0 °F 53.1 °F 87% 30.25 in 10.0 mi North 10.4 mph - N/A   Overcast
5:52 PM 57.0 °F 54.0 °F 89% 30.25 in 9.0 mi North 10.4 mph - N/A   Overcast
6:52 PM 57.0 °F 54.0 °F 89% 30.25 in 10.0 mi North 9.2 mph - N/A   Mostly Cloudy
7:52 PM 55.9 °F 54.0 °F 93% 30.25 in 9.0 mi North 8.1 mph - N/A   Scattered Clouds
8:52 PM 55.9 °F 54.0 °F 93% 30.24 in 9.0 mi North 6.9 mph - N/A   Scattered Clouds
9:52 PM 55.9 °F 54.0 °F 93% 30.23 in 9.0 mi North 5.8 mph - N/A   Mostly Cloudy
10:52 PM 55.9 °F 54.0 °F 93% 30.23 in 7.0 mi NNW 4.6 mph - N/A   Mostly Cloudy
11:01 PM 55.4 °F 53.6 °F 94% 30.23 in 8.0 mi NNW 4.6 mph - N/A   Mostly Cloudy
11:52 PM 55.9 °F 54.0 °F 93% 30.21 in 7.0 mi North 5.8 mph - N/A   Mostly Cloudy